TimeCST,TemperatureF,Dew PointF,Humidity,Sea Level PressureIn,VisibilityMPH,Wind Direction,Wind SpeedMPH,Gust SpeedMPH,PrecipitationIn,Events,Conditions,WindDirDegrees,DateUTC
12:53 AM,45.0,42.1,90,30.09,4.0,NE,3.5,-,0.13,Rain,Rain,40,2012-01-25 06:53:00
1:53 AM,44.1,42.1,93,30.09,4.0,NE,5.8,-,0.18,Rain,Rain,40,2012-01-25 07:53:00
2:08 AM,44.6,42.8,93,30.10,4.0,North,3.5,-,0.03,Rain,Rain,10,2012-01-25 08:08:00
2:53 AM,44.1,43.0,96,30.10,4.0,ENE,3.5,-,0.13,Rain,Rain,60,2012-01-25 08:53:00
3:19 AM,44.6,42.8,93,30.11,4.0,NE,6.9,-,0.03,Rain,Light Rain,40,2012-01-25 09:19:00
3:53 AM,44.1,43.0,96,30.11,3.0,NNE,5.8,-,0.06,Rain,Rain,20,2012-01-25 09:53:00
4:53 AM,44.6,42.8,93,30.12,7.0,NE,4.6,-,N/A,,Light Drizzle,40,2012-01-25 10:53:00
5:32 AM,44.6,42.8,93,30.07,10.0,NE,11.5,-,0.00,,Overcast,40,2012-01-25 11:32:00
5:53 AM,44.1,42.1,93,30.05,10.0,NE,6.9,-,0.00,,Overcast,40,2012-01-25 11:53:00
6:09 AM,44.6,41.0,87,30.06,10.0,NE,11.5,-,N/A,,Overcast,40,2012-01-25 12:09:00
6:32 AM,42.8,41.0,93,30.04,10.0,NE,8.1,-,N/A,,Overcast,40,2012-01-25 12:32:00
6:53 AM,43.0,41.0,93,30.06,10.0,NE,5.8,-,N/A,,Overcast,50,2012-01-25 12:53:00
7:07 AM,42.8,41.0,93,30.06,10.0,NE,8.1,-,N/A,,Overcast,40,2012-01-25 13:07:00
7:53 AM,43.0,41.0,93,30.08,10.0,ENE,5.8,-,N/A,,Overcast,70,2012-01-25 13:53:00
8:34 AM,42.8,41.0,93,30.08,4.0,NE,4.6,-,0.00,Rain,Light Rain,50,2012-01-25 14:34:00
8:53 AM,43.0,41.0,93,30.07,10.0,ENE,5.8,-,0.00,,Overcast,60,2012-01-25 14:53:00
9:36 AM,42.8,41.0,93,30.07,10.0,NNW,8.1,-,N/A,,Overcast,340,2012-01-25 15:36:00
9:53 AM,44.1,42.1,93,30.08,10.0,North,8.1,-,N/A,,Overcast,350,2012-01-25 15:53:00
10:53 AM,45.0,42.1,90,30.12,10.0,East,5.8,-,N/A,,Overcast,80,2012-01-25 16:53:00
11:53 AM,45.0,42.1,90,30.07,10.0,North,9.2,-,N/A,,Overcast,350,2012-01-25 17:53:00
12:53 PM,46.4,42.8,87,30.00,10.0,North,12.7,-,N/A,,Overcast,350,2012-01-25 18:53:00
1:13 PM,46.4,42.8,87,29.98,10.0,North,12.7,-,N/A,,Overcast,350,2012-01-25 19:13:00
1:53 PM,46.9,42.1,83,29.95,10.0,North,12.7,-,N/A,,Overcast,360,2012-01-25 19:53:00
2:12 PM,48.2,42.8,82,29.93,10.0,NNE,10.4,-,N/A,,Mostly Cloudy,30,2012-01-25 20:12:00
2:27 PM,48.2,42.8,82,29.93,10.0,NE,10.4,-,N/A,,Overcast,40,2012-01-25 20:27:00
2:39 PM,48.2,42.8,82,29.90,10.0,NNE,9.2,-,N/A,,Overcast,30,2012-01-25 20:39:00
2:53 PM,48.9,42.1,77,29.92,10.0,NNE,9.2,-,N/A,,Overcast,30,2012-01-25 20:53:00
3:00 PM,48.2,42.8,82,29.92,10.0,North,11.5,-,N/A,,Overcast,10,2012-01-25 21:00:00
3:36 PM,48.2,42.8,82,29.91,10.0,NE,8.1,-,N/A,,Overcast,40,2012-01-25 21:36:00
3:53 PM,48.9,42.1,77,29.92,10.0,NNE,8.1,-,N/A,,Overcast,30,2012-01-25 21:53:00
4:53 PM,48.9,42.1,77,29.92,10.0,North,10.4,-,N/A,,Mostly Cloudy,10,2012-01-25 22:53:00
5:14 PM,48.2,42.8,82,29.91,10.0,NNE,9.2,-,N/A,,Mostly Cloudy,20,2012-01-25 23:14:00
5:27 PM,48.2,42.8,82,29.89,10.0,North,9.2,-,N/A,,Mostly Cloudy,10,2012-01-25 23:27:00
5:53 PM,48.9,41.0,74,29.91,10.0,North,10.4,-,N/A,,Mostly Cloudy,10,2012-01-25 23:53:00
6:48 PM,48.2,41.0,76,29.93,10.0,North,10.4,-,N/A,,Mostly Cloudy,10,2012-01-26 00:48:00
6:53 PM,48.0,41.0,77,29.94,10.0,NE,6.9,-,N/A,,Mostly Cloudy,40,2012-01-26 00:53:00
7:27 PM,46.4,41.0,81,29.94,10.0,North,10.4,-,N/A,,Mostly Cloudy,10,2012-01-26 01:27:00
7:53 PM,46.9,41.0,80,29.93,10.0,NNE,12.7,-,N/A,,Mostly Cloudy,20,2012-01-26 01:53:00
8:53 PM,46.4,39.2,76,29.93,10.0,NNE,11.5,-,N/A,,Mostly Cloudy,20,2012-01-26 02:53:00
9:53 PM,45.0,39.9,82,29.93,10.0,NNE,9.2,-,N/A,,Mostly Cloudy,20,2012-01-26 03:53:00
10:41 PM,44.6,39.2,81,29.89,10.0,NE,10.4,-,N/A,,Scattered Clouds,40,2012-01-26 04:41:00
10:53 PM,44.1,39.0,82,29.91,10.0,East,5.8,-,N/A,,Mostly Cloudy,90,2012-01-26 04:53:00
11:53 PM,42.1,39.0,89,29.89,10.0,North,8.1,-,N/A,,Clear,360,2012-01-26 05:53:00